Saint Simons Island, GA

2:58 AM EST on December 13, 2019 (GMT -0500)
McKinnon

Weather History for KSSI - October, 2019

Change the Weather History Date:

Friday, October 4, 2019

  Actual Average Record
Temperature  
Mean Temperature 80 °F 74 °F  
Max Temperature 87 °F 81 °F 94 °F (1986)
Min Temperature 73 °F 67 °F 50 °F (1974)
Degree Days  
Heating Degree Days 0 0  
Month to date heating degree days 0 0  
Since 1 July heating degree days 0 0  
Cooling Degree Days 15 9  
Month to date cooling degree days 67 38  
Year to date cooling degree days 3054 2409  
Growing Degree Days 30 (Base 50)    
Moisture  
Dew Point 69 °F    
Average Humidity 66    
Maximum Humidity 87    
Minimum Humidity 45    
Precipitation  
Precipitation 0.00 in 0.19 in 7.27 in (1992)
Month to date precipitation 0.00 0.78  
Year to date precipitation 27.10 36.65  
Snow  
Snow 0.00 in - 0.00 in ()
Month to date snowfall 0.0  
Since 1 July snowfall 0.0  
Since 1 September snowfall 0.0  
Snow Depth 0.00 in    
Sea Level Pressure  
Sea Level Pressure 30.02 in    
Wind  
Wind Speed 6 mph (South)    
Max Wind Speed 12 mph    
Max Gust Speed 15 mph    
Visibility 10 miles    
Events      
T = Trace of Precipitation, MM = Missing Value Source: NWS Daily Summary

Daily Weather History Graph

Daily Weather History Graph

Search for Another Location

Airport or City:

Astronomy

Oct. 04, 2019 Rise Set
Actual Time 7:20 AM EDT 7:07 PM EDT
Civil Twilight 6:56 AM EDT 7:31 PM EDT
Nautical Twilight 6:28 AM EDT 7:59 PM EDT
Astronomical Twilight 6:00 AM EDT 8:27 PM EDT
Moon 1:30 PM EDT (10/4) 11:55 PM EDT (10/4)
Length of Visible Light 12h 34m
Length of Day
11h 46m
Waxing Crescent, 39% of the Moon is Illuminated
Oct 4
Waxing Crescent
Oct 5
First Quarter
Oct 13
Full
Oct 21
Last Quarter
Oct 27
New

Hourly Weather History & Observations

Time (EDT) Temp. Heat Index Dew Point Humidity Pressure Visibility Wind Dir Wind Speed Gust Speed Precip Events Conditions
12:53 AM 80.1 °F 83.2 °F 70.0 °F 71% 30.03 in 10.0 mi South 5.8 mph - N/A   Clear
1:53 AM 79.0 °F - 70.0 °F 74% 30.02 in 10.0 mi South 5.8 mph - N/A   Clear
2:53 AM 78.1 °F - 70.0 °F 76% 30.03 in 10.0 mi SW 5.8 mph - N/A   Partly Cloudy
3:53 AM 77.0 °F - 70.0 °F 79% 30.01 in 10.0 mi SW 3.5 mph - N/A   Clear
4:53 AM 73.9 °F - 70.0 °F 87% 30.01 in 10.0 mi Calm Calm - N/A   Clear
5:53 AM 73.9 °F - 70.0 °F 87% 30.02 in 10.0 mi Calm Calm - N/A   Clear
6:53 AM 73.0 °F - 69.1 °F 87% 30.04 in 10.0 mi West 4.6 mph - N/A   Clear
7:53 AM 75.0 °F - 70.0 °F 84% 30.06 in 10.0 mi Calm Calm - N/A   Clear
8:53 AM 77.0 °F - 70.0 °F 79% 30.06 in 10.0 mi West 3.5 mph - N/A   Clear
9:53 AM 80.1 °F 82.7 °F 68.0 °F 67% 30.07 in 10.0 mi West 6.9 mph - N/A   Clear
10:53 AM 81.0 °F 83.3 °F 66.9 °F 62% 30.06 in 10.0 mi SW 5.8 mph - N/A   Clear
11:53 AM 84.0 °F 87.0 °F 68.0 °F 58% 30.05 in 10.0 mi SW 4.6 mph - N/A   Clear
12:53 PM 84.9 °F 88.8 °F 69.1 °F 59% 30.03 in 10.0 mi SSE 6.9 mph - N/A   Clear
1:53 PM 86.0 °F 90.1 °F 69.1 °F 57% 30.01 in 10.0 mi SE 10.4 mph - N/A   Clear
2:53 PM 86.0 °F 88.8 °F 66.9 °F 53% 29.99 in 10.0 mi SE 10.4 mph - N/A   Clear
3:53 PM 86.0 °F 86.8 °F 63.0 °F 46% 29.98 in 10.0 mi ESE 9.2 mph - N/A   Clear
4:53 PM 86.0 °F 86.8 °F 63.0 °F 46% 29.98 in 10.0 mi SSE 9.2 mph - N/A   Clear
5:53 PM 82.9 °F 85.4 °F 66.9 °F 58% 29.98 in 10.0 mi SE 8.1 mph - N/A   Clear
6:53 PM 82.0 °F 85.5 °F 69.1 °F 65% 29.97 in 10.0 mi SSE 5.8 mph - N/A   Clear
7:53 PM 81.0 °F 84.4 °F 70.0 °F 69% 29.98 in 10.0 mi SSE 6.9 mph - N/A   Clear
8:53 PM 81.0 °F 84.9 °F 71.1 °F 72% 29.99 in 10.0 mi SSE 9.2 mph - N/A   Clear
9:53 PM 81.0 °F 85.2 °F 72.0 °F 74% 30.00 in 10.0 mi SSE 6.9 mph - N/A   Clear
10:53 PM 81.0 °F 85.2 °F 72.0 °F 74% 30.01 in 10.0 mi SSE 6.9 mph - N/A   Clear
11:53 PM 80.1 °F 83.8 °F 72.0 °F 76% 30.01 in 10.0 mi SSE 5.8 mph - N/A   Clear